GW4020 Weather Reports


time (UTC)temp
C
wind
direction
speed
KPH
gust
KPH
rain 1hr
cm
rain 24hr
cm
rain mn
cm
humidity
%
barometer
mb
20260507213744 11 8 3.2 3.2 0.00 0.00 0.00 49 1008.8
20260507213242 11 348 1.6 1.6 0.00 0.00 0.00 50 1008.8
20260507212738 11 321 6.4 6.4 0.00 0.00 0.00 51 1008.8
20260507212229 11 334 1.6 1.6 0.00 0.00 0.00 48 1008.9
20260507211726 11 340 1.6 1.6 0.00 0.00 0.00 49 1009.0
20260507211222 11 356 1.6 3.2 0.00 0.00 0.00 49 1008.9
20260507210719 11 337 0.0 1.6 0.00 0.00 0.00 52 1009.0
20260507210216 11 327 4.8 6.4 0.00 0.00 0.00 51 1008.9
20260507205712 11 321 4.8 6.4 0.00 0.00 0.00 49 1009.0
20260507205209 11 336 0.0 0.0 0.00 0.00 0.00 50 1008.8
20260507204705 11 349 3.2 4.8 0.00 0.00 0.00 49 1009.0
20260507204203 11 57 1.6 1.6 0.00 0.00 0.00 48 1008.9
20260507203701 11 353 0.0 1.6 0.00 0.00 0.00 50 1008.8
20260507203158 11 332 4.8 4.8 0.00 0.00 0.00 50 1008.8
20260507202653 11 335 1.6 3.2 0.00 0.00 0.00 48 1008.8
20260507202150 11 298 3.2 4.8 0.00 0.00 0.00 51 1008.8
20260507201645 11 345 6.4 9.7 0.00 0.00 0.00 48 1009.1
20260507201142 13 290 3.2 3.2 0.00 0.00 0.00 46 1008.7
20260507200639 12 333 4.8 4.8 0.00 0.00 0.00 49 1008.9
20260507200135 11 297 6.4 6.4 0.00 0.00 0.00 50 1009.1
20260507195632 12 353 3.2 4.8 0.00 0.00 0.00 50 1009.2
20260507195129 11 330 9.7 12.9 0.00 0.00 0.00 52 1009.2
20260507194626 11 341 3.2 3.2 0.00 0.00 0.00 52 1009.1
20260507194121 11 341 3.2 4.8 0.00 0.00 0.00 49 1009.3
20260507193618 11 257 4.8 6.4 0.00 0.00 0.00 47 1009.2
20260507193115 12 344 6.4 9.7 0.00 0.00 0.00 48 1009.3
20260507192612 12 332 9.7 14.5 0.00 0.00 0.00 45 1009.1
20260507192109 12 289 6.4 6.4 0.00 0.00 0.00 47 1009.0
20260507191604 12 55 1.6 3.2 0.00 0.00 0.00 46 1009.1
20260507191101 12 0 1.6 1.6 0.00 0.00 0.00 48 1009.2
20260507190558 11 342 1.6 3.2 0.00 0.00 0.00 47 1009.3
20260507190057 11 289 3.2 3.2 0.00 0.00 0.00 48 1009.5
20260507185555 11 337 1.6 3.2 0.00 0.00 0.00 49 1009.5
20260507185051 11 340 4.8 9.7 0.00 0.00 0.00 47 1009.4
20260507184550 11 334 11.3 14.5 0.00 0.00 0.00 47 1009.6
20260507184047 11 322 1.6 1.6 0.00 0.00 0.00 48 1009.7
20260507183542 11 185 3.2 3.2 0.00 0.00 0.00 50 1009.6
20260507183039 12 350 3.2 3.2 0.00 0.00 0.00 45 1009.5
20260507182536 11 318 3.2 4.8 0.00 0.00 0.00 49 1009.7
20260507182032 11 19 8.0 11.3 0.00 0.00 0.00 50 1009.7
20260507181530 11 267 3.2 4.8 0.00 0.00 0.00 51 1009.9
20260507181026 11 333 8.0 11.3 0.00 0.00 0.00 48 1010.1
20260507180522 11 336 6.4 6.4 0.00 0.00 0.00 50 1010.0
20260507180019 11 342 1.6 3.2 0.00 0.00 0.00 48 1009.8
20260507175515 11 296 4.8 4.8 0.00 0.00 0.00 52 1010.0
20260507175013 11 339 6.4 9.7 0.00 0.00 0.00 51 1009.8
20260507174510 10 337 1.6 1.6 0.00 0.00 0.00 52 1010.1
20260507174008 10 345 12.9 14.5 0.00 0.00 0.00 48 1010.2
20260507173504 10 344 11.3 14.5 0.00 0.00 0.00 49 1010.1
20260507173002 11 332 8.0 14.5 0.00 0.00 0.00 48 1010.0
20260507172457 12 329 4.8 6.4 0.00 0.00 0.00 46 1010.2
20260507171954 12 317 6.4 9.7 0.00 0.00 0.00 47 1010.2
20260507171450 11 38 3.2 4.8 0.00 0.00 0.00 49 1010.1
20260507170947 11 257 4.8 6.4 0.00 0.00 0.00 54 1010.3
20260507170444 10 5 0.0 0.0 0.00 0.00 0.00 50 1010.7
20260507165940 10 326 3.2 3.2 0.00 0.00 0.00 50 1010.7
20260507165437 10 305 6.4 6.4 0.00 0.00 0.00 51 1010.7
20260507164932 10 3 12.9 17.7 0.00 0.00 0.00 50 1010.6
20260507164429 10 288 9.7 12.9 0.00 0.00 0.00 48 1010.8
20260507163926 11 261 8.0 11.3 0.00 0.00 0.00 50 1010.7
20260507163424 10 305 4.8 4.8 0.00 0.00 0.00 54 1010.8
20260507162921 10 304 8.0 9.7 0.00 0.00 0.00 52 1010.8
20260507162416 10 334 6.4 9.7 0.00 0.00 0.00 51 1010.8
20260507161914 10 342 6.4 9.7 0.00 0.00 0.00 54 1010.9
20260507161409 10 330 6.4 6.4 0.00 0.00 0.00 50 1010.9
20260507160906 11 24 11.3 14.5 0.00 0.00 0.00 48 1011.1
20260507160402 11 334 3.2 4.8 0.00 0.00 0.00 49 1011.1
20260507155858 11 340 11.3 12.9 0.00 0.00 0.00 48 1011.6
20260507155354 10 317 4.8 4.8 0.00 0.00 0.00 50 1011.4
20260507154851 10 331 8.0 11.3 0.00 0.00 0.00 51 1011.5
20260507154348 10 335 3.2 3.2 0.00 0.00 0.00 49 1011.6
20260507153846 10 336 8.0 12.9 0.00 0.00 0.00 52 1011.7
20260507153342 10 347 4.8 4.8 0.00 0.00 0.00 49 1011.6
20260507152838 10 208 8.0 9.7 0.00 0.00 0.00 54 1011.5
20260507152335 10 273 11.3 12.9 0.00 0.00 0.00 52 1011.8
20260507151831 10 9 4.8 4.8 0.00 0.00 0.00 52 1011.8
20260507151327 9 337 6.4 6.4 0.00 0.00 0.00 56 1011.9
20260507150824 9 252 4.8 6.4 0.00 0.00 0.00 58 1011.7
20260507150320 8 316 3.2 3.2 0.00 0.00 0.00 57 1011.8
20260507145816 8 339 6.4 6.4 0.00 0.00 0.00 57 1011.8
20260507145313 8 322 3.2 4.8 0.00 0.00 0.00 55 1011.9
20260507144810 8 345 3.2 3.2 0.00 0.00 0.00 53 1012.2
20260507144307 8 325 6.4 9.7 0.00 0.00 0.00 58 1012.2
20260507143803 8 255 6.4 6.4 0.00 0.00 0.00 57 1012.1
20260507143301 9 349 6.4 6.4 0.00 0.00 0.00 53 1011.9
20260507142757 9 1 6.4 9.7 0.00 0.00 0.00 56 1012.2
20260507142254 8 330 3.2 4.8 0.00 0.00 0.00 56 1012.2
20260507141750 9 31 4.8 6.4 0.00 0.00 0.00 53 1012.2
20260507141248 8 259 4.8 4.8 0.00 0.00 0.00 61 1012.0
20260507140743 8 277 3.2 4.8 0.00 0.00 0.00 61 1011.9
20260507140241 10 346 3.2 3.2 0.00 0.00 0.00 61 1012.1
20260507135738 8 352 0.0 1.6 0.00 0.00 0.00 59 1012.2
20260507135236 8 351 1.6 3.2 0.00 0.00 0.00 59 1012.2
20260507134732 8 325 6.4 6.4 0.00 0.00 0.00 62 1012.1
20260507134228 8 358 1.6 3.2 0.00 0.00 0.00 63 1012.3
20260507133724 8 262 6.4 9.7 0.00 0.00 0.00 63 1012.1
20260507133221 8 357 1.6 1.6 0.00 0.00 0.00 62 1012.5
20260507132718 7 351 1.6 1.6 0.00 0.00 0.00 62 1012.5
20260507132215 8 347 3.2 4.8 0.00 0.00 0.00 62 1012.3
20260507131711 7 33 1.6 1.6 0.00 0.00 0.00 61 1012.5
20260507131209 7 336 11.3 14.5 0.00 0.00 0.00 68 1012.6
20260507130706 6 350 1.6 3.2 0.00 0.00 0.00 64 1012.8
20260507130203 6 347 9.7 11.3 0.00 0.00 0.00 66 1012.6
20260507125702 6 344 4.8 6.4 0.00 0.00 0.00 67 1012.7
20260507125159 6 343 4.8 6.4 0.00 0.00 0.00 69 1012.8
20260507124655 6 359 3.2 3.2 0.00 0.00 0.00 71 1012.7
20260507124153 6 355 4.8 4.8 0.00 0.00 0.00 73 1012.5
20260507123651 5 349 3.2 3.2 0.00 0.00 0.00 74 1012.6
20260507123148 6 345 3.2 3.2 0.00 0.00 0.00 74 1012.7
20260507122643 5 343 6.4 6.4 0.00 0.00 0.00 76 1012.6
20260507122139 5 330 3.2 3.2 0.00 0.00 0.00 78 1012.2
20260507121635 5 247 6.4 9.7 0.00 0.00 0.00 77 1012.5
20260507121132 5 327 4.8 4.8 0.00 0.00 0.00 78 1012.2
20260507120628 4 346 4.8 6.4 0.00 0.00 0.00 81 1012.1
20260507120125 4 331 1.6 1.6 0.00 0.00 0.00 85 1012.5
20260507115621 3 2 0.0 1.6 0.00 0.00 0.00 91 1012.3
20260507115117 3 355 0.0 0.0 0.00 0.00 0.00 92 1012.3
20260507114613 3 326 0.0 0.0 0.00 0.00 0.00 95 1012.3
20260507114110 2 326 0.0 0.0 0.00 0.00 0.00 96 1012.3
20260507113608 2 329 1.6 3.2 0.00 0.00 0.00 99 1012.3
20260507113104 2 339 0.0 1.6 0.00 0.00 0.00 99 1012.3
20260507112602 2 326 3.2 3.2 0.00 0.00 0.00 99 1012.1
20260507112058 2 327 1.6 3.2 0.00 0.00 0.00 99 1012.1
20260507111555 1 326 1.6 1.6 0.00 0.00 0.00 99 1011.9
20260507111052 1 327 0.0 0.0 0.00 0.00 0.00 99 1011.8
20260507110548 1 327 0.0 0.0 0.00 0.00 0.00 99 1011.8
20260507110045 1 326 0.0 0.0 0.00 0.00 0.00 99 1011.8
20260507105542 0 327 0.0 0.0 0.00 0.00 0.00 99 1011.8
20260507105038 0 327 1.6 1.6 0.00 0.00 0.00 99 1011.8
20260507104535 0 327 0.0 0.0 0.00 0.00 0.00 99 1011.7
20260507104032 0 327 0.0 0.0 0.00 0.00 0.00 99 1011.8
20260507103528 0 327 0.0 0.0 0.00 0.00 0.00 99 1011.6
20260507103025 0 326 0.0 0.0 0.00 0.00 0.00 98 1011.4
20260507102521 0 327 0.0 0.0 0.00 0.00 0.00 98 1011.5
20260507102017 0 331 1.6 1.6 0.00 0.00 0.00 98 1011.5
20260507101513 0 331 0.0 0.0 0.00 0.00 0.00 97 1011.2
20260507101010 1 331 0.0 0.0 0.00 0.00 0.00 97 1011.4
20260507100507 0 331 0.0 0.0 0.00 0.00 0.00 97 1011.5
20260507100005 1 331 0.0 0.0 0.00 0.00 0.00 97 1011.5
20260507095502 1 331 0.0 0.0 0.00 0.00 0.00 96 1011.4
20260507094954 1 331 0.0 0.0 0.00 0.00 0.00 95 1011.4
20260507094450 1 331 0.0 0.0 0.00 0.00 0.00 95 1011.4
20260507093947 2 331 0.0 1.6 0.00 0.00 0.00 93 1011.4
20260507093445 2 330 0.0 0.0 0.00 0.00 0.00 92 1011.3
20260507092943 2 292 1.6 1.6 0.00 0.00 0.00 93 1011.5
20260507092439 2 324 0.0 0.0 0.00 0.00 0.00 93 1011.3
20260507091936 2 324 0.0 0.0 0.00 0.00 0.00 92 1011.2
20260507091432 2 314 1.6 1.6 0.00 0.00 0.00 93 1011.2
20260507090928 2 314 1.6 3.2 0.00 0.00 0.00 92 1011.4
20260507090424 2 326 1.6 1.6 0.00 0.00 0.00 93 1011.3
20260507085915 2 315 1.6 3.2 0.00 0.00 0.00 95 1011.2
20260507085412 3 330 0.0 0.0 0.00 0.00 0.00 96 1011.4
20260507084910 3 322 1.6 1.6 0.00 0.00 0.00 97 1011.4
20260507084406 3 337 0.0 0.0 0.00 0.00 0.00 97 1011.5
20260507083904 3 336 0.0 0.0 0.00 0.00 0.00 97 1011.3
20260507083400 3 338 0.0 0.0 0.00 0.00 0.00 97 1011.3
20260507082856 3 341 0.0 1.6 0.00 0.00 0.00 97 1011.2
20260507082352 3 340 0.0 1.6 0.00 0.00 0.00 98 1011.2
20260507081849 3 332 0.0 0.0 0.00 0.00 0.00 98 1011.3
20260507081345 3 356 0.0 0.0 0.00 0.00 0.00 98 1011.2
20260507080842 3 356 0.0 0.0 0.00 0.00 0.00 98 1011.5
20260507080338 3 356 0.0 0.0 0.00 0.00 0.00 98 1011.4
20260507075834 3 358 0.0 0.0 0.00 0.00 0.00 98 1011.4
20260507075330 3 358 0.0 0.0 0.00 0.00 0.00 98 1011.3
20260507074826 3 358 0.0 0.0 0.00 0.00 0.00 98 1011.5
20260507074324 3 358 0.0 0.0 0.00 0.00 0.00 98 1011.6
20260507073821 3 358 0.0 0.0 0.00 0.00 0.00 98 1011.6
20260507073318 3 358 0.0 0.0 0.00 0.00 0.00 98 1011.5
20260507072815 3 358 0.0 0.0 0.00 0.00 0.00 98 1011.5
20260507072312 3 358 0.0 0.0 0.00 0.00 0.00 97 1011.7
20260507071810 3 358 0.0 0.0 0.00 0.00 0.00 97 1011.5
20260507071306 3 358 0.0 0.0 0.00 0.00 0.00 97 1011.7
20260507070803 3 358 1.6 1.6 0.00 0.00 0.00 96 1011.5
20260507070300 3 359 0.0 0.0 0.00 0.00 0.00 96 1011.4
20260507065757 3 351 0.0 0.0 0.00 0.00 0.00 96 1011.5
20260507065253 3 331 0.0 0.0 0.00 0.00 0.00 94 1011.6
20260507064750 4 343 0.0 1.6 0.00 0.00 0.00 93 1011.6
20260507064249 4 340 0.0 0.0 0.00 0.00 0.00 92 1011.7
20260507063747 5 332 0.0 0.0 0.00 0.00 0.00 92 1011.7
20260507063243 5 282 3.2 4.8 0.00 0.00 0.00 91 1011.7
20260507062740 5 332 3.2 3.2 0.00 0.00 0.00 94 1011.6
20260507062237 5 300 1.6 3.2 0.00 0.00 0.00 94 1011.6
20260507061735 5 313 1.6 3.2 0.00 0.00 0.00 94 1011.7
20260507061233 5 304 3.2 3.2 0.00 0.00 0.00 94 1011.6
20260507060731 5 341 3.2 4.8 0.00 0.00 0.00 95 1011.6
20260507060227 5 324 3.2 3.2 0.00 0.00 0.00 97 1011.7
20260507055723 5 264 3.2 3.2 0.00 0.00 0.00 99 1011.5
20260507055219 5 282 4.8 4.8 0.00 0.00 0.00 99 1011.3
20260507054715 5 315 1.6 1.6 0.00 0.00 0.00 99 1011.3
20260507054213 5 294 3.2 3.2 0.00 0.00 0.00 99 1011.2
20260507053710 5 313 1.6 3.2 0.00 0.00 0.00 99 1011.1
20260507053208 5 289 3.2 3.2 0.00 0.00 0.00 99 1011.2
20260507052706 5 335 1.6 3.2 0.00 0.00 0.00 99 1011.4
20260507052202 5 319 3.2 4.8 0.00 0.00 0.00 99 1011.3
20260507051700 5 331 6.4 6.4 0.00 0.00 0.00 99 1011.1
20260507051156 5 326 0.0 0.0 0.00 0.00 0.00 99 1011.1
20260507050653 5 333 1.6 1.6 0.00 0.00 0.00 99 1011.3
20260507050150 5 333 1.6 3.2 0.00 0.00 0.00 99 1011.3
20260507045647 5 328 0.0 0.0 0.00 0.00 0.00 99 1011.0
20260507045143 5 334 1.6 1.6 0.00 0.00 0.00 99 1011.1
20260507044640 5 335 1.6 1.6 0.00 0.00 0.00 99 1011.3
20260507044137 5 334 0.0 0.0 0.00 0.00 0.00 99 1011.4
20260507043633 5 335 0.0 0.0 0.00 0.00 0.00 99 1011.1
20260507043130 5 335 0.0 0.0 0.00 0.00 0.00 99 1011.2
20260507042626 5 335 0.0 0.0 0.00 0.00 0.00 99 1011.3
20260507042121 5 338 0.0 0.0 0.00 0.00 0.00 99 1011.2
20260507041618 5 338 0.0 0.0 0.00 0.00 0.00 99 1011.2
20260507041115 5 341 1.6 1.6 0.00 0.00 0.00 99 1011.3
20260507040613 5 329 0.0 0.0 0.00 0.00 0.00 99 1011.3
20260507040109 5 329 0.0 0.0 0.00 0.00 0.00 99 1011.3
20260507035604 5 329 0.0 0.0 0.00 1.27 1.27 99 1011.4
20260507035100 5 347 0.0 0.0 0.00 1.27 1.27 99 1011.7
20260507034557 5 347 0.0 0.0 0.00 1.27 1.27 99 1011.5
20260507034055 5 347 0.0 0.0 0.00 1.27 1.27 99 1011.5
20260507033553 5 347 0.0 0.0 0.00 1.27 1.27 99 1011.5
20260507033050 5 347 0.0 0.0 0.00 1.27 1.27 99 1011.3
20260507032547 5 347 0.0 0.0 0.00 1.27 1.27 99 1011.4
20260507032043 5 347 0.0 0.0 0.00 1.27 1.27 99 1011.2
20260507031540 5 347 0.0 0.0 0.00 1.27 1.27 99 1011.4
20260507031037 5 347 0.0 0.0 0.00 1.27 1.27 99 1011.2
20260507030534 5 347 0.0 0.0 0.00 1.27 1.27 99 1011.2
20260507030032 5 347 0.0 0.0 0.00 1.27 1.27 99 1011.1
20260507025528 5 347 0.0 0.0 0.00 1.27 1.27 99 1011.0
20260507025026 5 347 0.0 0.0 0.00 1.27 1.27 99 1011.2
20260507024523 5 347 0.0 0.0 0.00 1.27 1.27 99 1011.5
20260507024020 5 347 0.0 0.0 0.00 1.27 1.27 99 1011.7
20260507023516 5 347 0.0 0.0 0.00 1.27 1.27 99 1011.4
20260507023014 5 347 0.0 0.0 0.00 1.27 1.27 99 1011.6
20260507022510 6 347 0.0 0.0 0.00 1.27 1.27 99 1011.5
20260507022000 6 348 0.0 0.0 0.00 1.27 1.27 99 1011.7
20260507021456 6 348 0.0 0.0 0.00 1.27 1.27 99 1011.2
20260507020953 6 348 0.0 0.0 0.00 1.27 1.27 99 1011.4
20260507020450 6 348 0.0 0.0 0.00 1.27 1.27 99 1011.8
20260507015947 6 348 0.0 0.0 0.00 1.27 1.27 99 1012.0
20260507015446 6 347 0.0 0.0 0.00 1.27 1.27 98 1012.1
20260507014942 6 348 0.0 0.0 0.00 1.27 1.27 98 1011.5
20260507014439 6 348 0.0 0.0 0.00 1.27 1.27 98 1011.8
20260507013935 6 348 0.0 0.0 0.00 1.27 1.27 98 1012.1
20260507013432 6 348 0.0 0.0 0.00 1.27 1.27 98 1012.1
20260507012929 6 348 0.0 0.0 0.00 1.27 1.27 98 1012.2
20260507012426 6 348 0.0 0.0 0.00 1.27 1.27 98 1011.9
20260507011922 6 348 0.0 0.0 0.00 1.27 1.27 98 1011.8
20260507011419 6 348 0.0 0.0 0.00 1.27 1.27 98 1012.0
20260507010914 6 348 0.0 0.0 0.00 1.27 1.27 98 1011.8
20260507010409 6 348 0.0 0.0 0.00 1.27 1.27 98 1011.7
20260507005907 6 348 0.0 0.0 0.00 1.27 1.27 98 1011.7
20260507005403 6 348 0.0 0.0 0.00 1.27 1.27 97 1011.6
20260507004900 6 348 0.0 0.0 0.00 1.27 1.27 97 1011.3
20260507004357 6 348 1.6 1.6 0.00 1.27 1.27 97 1011.7
20260507003854 6 332 0.0 1.6 0.00 1.27 1.27 97 1011.7
20260507003349 6 343 1.6 3.2 0.00 1.27 1.27 97 1011.7
20260507002845 6 349 0.0 0.0 0.00 1.27 1.27 97 1011.2
20260507002341 6 334 0.0 1.6 0.00 1.27 1.27 96 1011.4
20260507001838 6 304 3.2 3.2 0.00 1.27 1.27 96 1011.3
20260507001335 6 345 1.6 1.6 0.00 1.27 1.27 97 1011.2
20260507000832 6 342 0.0 1.6 0.00 1.27 1.27 97 1011.0
20260507000328 6 320 3.2 4.8 0.00 1.27 1.27 97 1010.9
20260506235824 6 330 1.6 1.6 0.00 1.27 1.27 97 1010.8
20260506235320 6 15 0.0 1.6 0.00 1.27 1.27 97 1010.7
20260506234817 6 344 1.6 1.6 0.00 1.27 1.27 97 1010.8
20260506234315 6 55 0.0 1.6 0.00 1.27 1.27 97 1010.7
20260506233812 6 331 3.2 3.2 0.00 1.27 1.27 97 1010.7
20260506233308 6 307 1.6 3.2 0.00 1.27 1.27 98 1010.8
20260506232805 6 5 0.0 0.0 0.00 1.27 1.27 98 1010.7
20260506232300 6 357 0.0 0.0 0.00 1.27 1.27 98 1010.6
20260506231757 6 336 0.0 0.0 0.00 1.27 1.27 98 1010.4
20260506231255 6 267 3.2 4.8 0.00 1.27 1.27 98 1010.7
20260506230752 6 346 0.0 0.0 0.00 1.27 1.27 98 1010.7
20260506230249 6 303 6.4 6.4 0.00 1.27 1.27 98 1010.6
20260506225745 6 342 8.0 9.7 0.00 1.27 1.27 98 1010.7
20260506225242 6 7 0.0 0.0 0.00 1.27 1.27 99 1010.8
20260506224738 6 353 1.6 1.6 0.00 1.27 1.27 99 1010.8
20260506224236 6 287 4.8 4.8 0.00 1.27 1.27 99 1010.4
20260506223732 6 33 1.6 1.6 0.00 1.27 1.27 99 1010.6
20260506223227 6 280 8.0 11.3 0.00 1.27 1.27 99 1010.6
20260506222725 6 293 4.8 4.8 0.00 1.27 1.27 99 1010.4
20260506222220 7 270 6.4 6.4 0.00 1.27 1.27 98 1010.1
20260506221718 7 338 1.6 1.6 0.00 1.27 1.27 98 1010.1
20260506221216 7 342 8.0 11.3 0.00 1.27 1.27 98 1010.2
20260506220713 7 283 3.2 3.2 0.00 1.27 1.27 98 1010.0
20260506220208 7 299 3.2 3.2 0.00 1.27 1.27 98 1009.9
20260506215705 7 19 3.2 6.4 0.00 1.27 1.27 98 1009.9
20260506215200 7 345 1.6 3.2 0.00 1.27 1.27 97 1009.8
20260506214657 7 345 1.6 3.2 0.00 1.27 1.27 97 1009.7
20260506214154 7 331 1.6 1.6 0.00 1.27 1.27 97 1009.5